Skip Page Navigation
NASA JPL Caltech
NASA Logo - Jet Propulsion Laboratory + View the NASA Portal
+ Center for Near-Earth Object Studies
JPL Home Earth Solar System Stars & Galaxies Technology
JPL Solar System Dynamics
BODIES ORBITS EPHEMERIDES TOOLS PHYSICAL DATA DISCOVERY FAQ SITE MAP
IMPORTANT: The SSD Announcement email list is now available. Major changes are coming in the near future, including possible hostname and/or URL changes. To be notified of such changes, subscribe to this email list.

Please visit this page for more details.


JPL Small-Body Database Browser
Search: [ help ]  
35019 (1981 EH10)
Classification: Main-belt Asteroid          SPK-ID: 2035019
Ephemeris | Orbit Diagram | Orbital Elements | Mission Design | Physical Parameters | Discovery Circumstances ]

[ show orbit diagram ]
Orbital Elements at Epoch 2458600.5 (2019-Apr-27.0) TDB
Reference: JPL 24 (heliocentric ecliptic J2000)
 Element Value Uncertainty (1-sigma)   Units 
e .1239935641441273 3.0013e-08  
a 2.328932963163363 9.1916e-09 au
q 2.040160264407994 6.8958e-08 au
i 5.942541434864143 4.2169e-06 deg
node 319.6967846695617 2.9084e-05 deg
peri 44.97772677458819 3.4428e-05 deg
M 72.01183535672909 1.6844e-05 deg
tp 2458340.821922215428
(2018-Aug-10.32192222)
6.0861e-05 TDB
period 1298.176994647457
3.55
7.6853e-06
2.104e-08
d
yr
n .2773119547521826 1.6417e-09 deg/d
Q 2.617705661918732 1.0331e-08 au
  Orbit Determination Parameters
   # obs. used (total)      1084  
   data-arc span      23520 days (64.39 yr)  
   first obs. used      1954-09-06  
   last obs. used      2019-01-28  
   planetary ephem.      DE431  
   SB-pert. ephem.      SB431-N16  
   condition code      0  
   norm. resid. RMS      .47845  
   source      ORB  
   producer      Otto Matic  
   solution date      2019-Jul-13 01:44:55  

Additional Information
 Earth MOID = 1.04135 au 
 Jupiter MOID = 2.83118 au 
 T_jup = 3.555 
[ show covariance matrix ]

Ephemeris | Orbit Diagram | Orbital Elements | Mission Design | Physical Parameters | Discovery Circumstances ]

Physical Parameter Table
Parameter Symbol Value Units Sigma Reference Notes
absolute magnitude H 15.2   n/a MPO459111  

35019 (1981 EH10)          Discovered 1981-Mar-01 by Bus, S. J. at Siding Spring
Reference: 20020227/Numbers.arcLast Updated: 2004-04-19

Alternate Designations
 1981 EH10 = 2000 QZ7 
Ephemeris | Orbit Diagram | Orbital Elements | Mission Design | Physical Parameters | Discovery Circumstances ]
ABOUT SSD CREDITS/AWARDS PRIVACY/COPYRIGHT GLOSSARY LINKS
FirstGov
(server date/time)  
NASA Home Page
Site Manager:   Ryan S. Park
Webmaster  Alan B. Chamberlin